Location: Unspecified
(0.0000°N, 0.0000°E)
Time: 18:38:49
(UTC+02:00)

Orbus 21S - Visible Passes

Search period start: 30 March 2017 00:00
Search period end: 09 April 2017 00:00
Orbit: 267 x 33094 km, 24.1° (Epoch: 28 March)

Date Brightness Start Highest point End Pass type
(mag) Time Alt. Az. Time Alt. Az. Time Alt. Az.
30 Mar 7.7 03:48:02 36° NW 07:41:09 71° NNW 12:35:12 10° SE visible
30 Mar 4.7 22:39:20 10° W 23:09:03 14° ENE 07:24:46 10° ESE visible
01 Apr 7.4 04:10:24 27° NW 07:18:42 68° NNW 13:00:15 10° SE visible
01 Apr 5.4 23:04:16 10° W 23:31:13 22° NE 07:55:27 10° ESE visible
03 Apr 7.2 04:32:14 17° WNW 07:11:51 63° NW 13:25:02 10° SE visible
03 Apr 5.9 23:29:08 10° WNW 23:52:47 31° NE 08:24:09 10° ESE visible
05 Apr 6.9 04:55:47 10° WNW 07:18:59 58° NW 13:49:33 10° SE visible
05 Apr 6.3 23:53:57 10° WNW 00:13:17 39° NE 08:51:33 10° ESE visible
07 Apr 6.7 05:23:32 10° WNW 07:33:44 51° NW 14:13:50 10° SSE visible
08 Apr 7.0 00:18:42 10° WNW 00:31:59 45° N 09:17:59 10° ESE visible
